Location: *
(47.7167°N, 1.7333°W)
Time: 18:10:52
(UTC+00:00)

Cosmos 1697 Rocket - Pass Details

Date: 09 April 2020
Orbit: 831 x 845 km, 71.0° (Epoch: 26 May)

Event Time Altitude Azimuth Distance (km) Brightness Sun altitude
Rises 22:49:55 0° 324° (NW) 3,412 6.9 -31.6°
Reaches altitude 10° 22:52:41 10° 313° (NW) 2,473 5.8 -31.8°
Enters shadow 22:56:44 27° 268° (W) 1,585 4.2 -32.1°
